• In Netherlands
  • List of Countries
  • For 7 days
  • Water Temperature
  • Satellite Maps
  • Weather Map
  • Weather Widgets
  • user-avatar
    Login

    Hourly Weather Avilo-Uspenka

    Today, 21 October, Sunday

    Time Temperature Precipitation Wind Pressure Humidity
    00:00 +14°C° 0 mm 0 mps 750 mmHg 71%
    01:00 +13°C° 0 mm 0 mps 750 mmHg 73%
    02:00 +13°C° 0 mm 0 mps 750 mmHg 74%
    03:00 +13°C° 0 mm 0 mps 750 mmHg 76%
    04:00 +12°C° 0 mm 0 mps 750 mmHg 77%
    05:00 +12°C° 0 mm 0 mps 750 mmHg 78%
    06:00 +13°C° 0 mm 1 mps 750 mmHg 79%
    07:00 +14°C° 0 mm 1 mps 751 mmHg 75%
    08:00 +15°C° 0 mm 1 mps 751 mmHg 71%
    09:00 +16°C° 0 mm 2 mps 751 mmHg 67%
    10:00 +17°C° 0 mm 2 mps 751 mmHg 62%
    11:00 +18°C° 0 mm 2 mps 752 mmHg 57%
    12:00 +20°C° 0 mm 2 mps 752 mmHg 52%
    13:00 +20°C° 0 mm 2 mps 752 mmHg 50%
    14:00 +21°C° 0 mm 2 mps 752 mmHg 49%
    15:00 +22°C° 0 mm 1 mps 752 mmHg 48%
    16:00 +21°C° 0.1 mm 1 mps 752 mmHg 52%
    17:00 +20°C° 0.1 mm 1 mps 752 mmHg 56%
    18:00 +19°C° 0.1 mm 1 mps 752 mmHg 61%
    19:00 +18°C° 0.1 mm 2 mps 752 mmHg 65%
    20:00 +17°C° 0.1 mm 2 mps 752 mmHg 69%
    21:00 +17°C° 0.1 mm 2 mps 752 mmHg 73%
    22:00 +16°C° 0.5 mm 2 mps 752 mmHg 75%
    23:00 +16°C° 0.5 mm 2 mps 752 mmHg 78%

    Tomorrow, 22 October, Monday

    Time Temperature Precipitation Wind Pressure Humidity
    00:00 +16°C° 0.5 mm 2 mps 752 mmHg 81%
    01:00 +16°C° 1.6 mm 3 mps 752 mmHg 83%
    02:00 +16°C° 1.6 mm 3 mps 752 mmHg 84%
    03:00 +14°C° 1.6 mm 3 mps 752 mmHg 86%
    04:00 +14°C° 2.9 mm 4 mps 752 mmHg 87%
    05:00 +14°C° 2.9 mm 4 mps 752 mmHg 88%
    06:00 +14°C° 2.9 mm 4 mps 752 mmHg 89%
    07:00 +14°C° 2.6 mm 4 mps 752 mmHg 88%
    08:00 +14°C° 2.6 mm 5 mps 752 mmHg 87%
    09:00 +14°C° 2.6 mm 5 mps 752 mmHg 86%
    10:00 +15°C° 1.5 mm 5 mps 752 mmHg 84%
    11:00 +15°C° 1.5 mm 5 mps 752 mmHg 82%
    12:00 +15°C° 1.5 mm 5 mps 752 mmHg 81%
    13:00 +16°C° 0.2 mm 5 mps 752 mmHg 77%
    14:00 +18°C° 0.2 mm 4 mps 752 mmHg 73%
    15:00 +18°C° 0.2 mm 4 mps 752 mmHg 70%
    16:00 +18°C° 0.1 mm 3 mps 752 mmHg 73%
    17:00 +18°C° 0.1 mm 3 mps 752 mmHg 77%
    18:00 +17°C° 0.1 mm 2 mps 752 mmHg 80%
    19:00 +17°C° 0.3 mm 3 mps 752 mmHg 82%
    20:00 +16°C° 0.3 mm 3 mps 752 mmHg 83%
    21:00 +16°C° 0.3 mm 3 mps 752 mmHg 85%
    22:00 +16°C° 0 mm 3 mps 752 mmHg 87%
    23:00 +14°C° 0 mm 3 mps 751 mmHg 89%

    Day after tomorrow, 23 October, Tuesday

    Time Temperature Precipitation Wind Pressure Humidity
    00:00 +14°C° 0 mm 3 mps 751 mmHg 91%
    01:00 +14°C° 0 mm 3 mps 751 mmHg 92%
    02:00 +14°C° 0 mm 3 mps 751 mmHg 93%
    03:00 +13°C° 0 mm 3 mps 751 mmHg 94%
    04:00 +13°C° 0 mm 3 mps 751 mmHg 92%
    05:00 +13°C° 0 mm 3 mps 751 mmHg 91%
    06:00 +12°C° 0 mm 3 mps 751 mmHg 90%
    07:00 +13°C° 0 mm 3 mps 751 mmHg 87%
    08:00 +13°C° 0 mm 3 mps 751 mmHg 85%
    09:00 +13°C° 0 mm 3 mps 751 mmHg 83%
    10:00 +14°C° 0 mm 4 mps 751 mmHg 76%
    11:00 +15°C° 0 mm 4 mps 751 mmHg 68%
    12:00 +17°C° 0 mm 4 mps 751 mmHg 61%
    13:00 +17°C° 0 mm 4 mps 750 mmHg 59%
    14:00 +17°C° 0 mm 4 mps 750 mmHg 57%
    15:00 +16°C° 0 mm 5 mps 749 mmHg 55%
    16:00 +17°C° 0 mm 4 mps 749 mmHg 58%
    17:00 +16°C° 0 mm 3 mps 749 mmHg 61%
    18:00 +15°C° 0 mm 2 mps 749 mmHg 64%
    19:00 +15°C° 0 mm 2 mps 749 mmHg 68%
    20:00 +13°C° 0 mm 3 mps 748 mmHg 72%
    21:00 +13°C° 0 mm 3 mps 748 mmHg 76%
    22:00 +13°C° 0.1 mm 3 mps 748 mmHg 76%
    23:00 +12°C° 0.1 mm 3 mps 748 mmHg 77%

    24 October, Wednesday

    Time Temperature Precipitation Wind Pressure Humidity
    00:00 +12°C° 0.1 mm 3 mps 747 mmHg 78%
    01:00 +12°C° 0 mm 3 mps 747 mmHg 78%
    02:00 +11°C° 0 mm 3 mps 746 mmHg 78%
    03:00 +10°C° 0 mm 3 mps 746 mmHg 79%
    04:00 +10°C° 0 mm 3 mps 745 mmHg 79%
    05:00 +10°C° 0 mm 3 mps 745 mmHg 79%
    06:00 +9°C° 0 mm 3 mps 745 mmHg 79%
    07:00 +10°C° 0 mm 4 mps 744 mmHg 73%
    08:00 +11°C° 0 mm 4 mps 744 mmHg 67%
    09:00 +12°C° 0 mm 5 mps 744 mmHg 61%
    10:00 +13°C° 0 mm 6 mps 743 mmHg 57%
    11:00 +14°C° 0 mm 6 mps 742 mmHg 54%
    12:00 +15°C° 0 mm 7 mps 741 mmHg 50%
    13:00 +15°C° 0 mm 7 mps 741 mmHg 52%
    14:00 +15°C° 0 mm 8 mps 740 mmHg 55%
    15:00 +15°C° 0 mm 8 mps 739 mmHg 57%
    16:00 +15°C° 0 mm 7 mps 738 mmHg 62%
    17:00 +14°C° 0 mm 6 mps 738 mmHg 66%
    18:00 +14°C° 0 mm 6 mps 738 mmHg 70%
    19:00 +13°C° 0 mm 5 mps 737 mmHg 71%
    20:00 +13°C° 0 mm 5 mps 737 mmHg 72%
    21:00 +13°C° 0 mm 5 mps 737 mmHg 73%
    22:00 +13°C° 0.1 mm 5 mps 737 mmHg 76%
    23:00 +12°C° 0.1 mm 4 mps 736 mmHg 78%

    25 October, Thursday

    Time Temperature Precipitation Wind Pressure Humidity
    00:00 +12°C° 0.1 mm 4 mps 736 mmHg 81%
    01:00 +12°C° 0.2 mm 4 mps 736 mmHg 82%
    02:00 +11°C° 0.2 mm 4 mps 736 mmHg 82%
    03:00 +11°C° 0.2 mm 4 mps 735 mmHg 83%
    04:00 +11°C° 0.2 mm 4 mps 736 mmHg 83%
    05:00 +11°C° 0.2 mm 4 mps 736 mmHg 84%
    06:00 +11°C° 0.2 mm 4 mps 736 mmHg 85%
    07:00 +10°C° 0.1 mm 4 mps 736 mmHg 81%
    08:00 +9°C° 0.1 mm 5 mps 736 mmHg 77%
    09:00 +9°C° 0.1 mm 5 mps 736 mmHg 73%
    10:00 +9°C° 0 mm 5 mps 737 mmHg 67%
    11:00 +9°C° 0 mm 5 mps 737 mmHg 61%
    12:00 +9°C° 0 mm 5 mps 737 mmHg 54%
    13:00 +9°C° 0 mm 5 mps 738 mmHg 51%
    14:00 +9°C° 0 mm 5 mps 738 mmHg 48%
    15:00 +9°C° 0 mm 6 mps 738 mmHg 45%
    16:00 +8°C° 0 mm 5 mps 739 mmHg 47%
    17:00 +8°C° 0 mm 5 mps 739 mmHg 48%
    18:00 +8°C° 0 mm 4 mps 740 mmHg 50%
    19:00 +7°C° 0 mm 4 mps 740 mmHg 53%
    20:00 +7°C° 0 mm 4 mps 740 mmHg 55%
    21:00 +7°C° 0 mm 4 mps 741 mmHg 58%
    22:00 +7°C° 0 mm 4 mps 741 mmHg 60%
    23:00 +6°C° 0 mm 4 mps 741 mmHg 62%

    26 October, Friday

    Time Temperature Precipitation Wind Pressure Humidity
    00:00 +6°C° 0 mm 4 mps 741 mmHg 64%
    01:00 +5°C° 0 mm 4 mps 742 mmHg 68%
    02:00 +5°C° 0 mm 4 mps 742 mmHg 72%
    03:00 +5°C° 0 mm 4 mps 743 mmHg 76%
    04:00 +4°C° 0 mm 4 mps 743 mmHg 78%
    05:00 +4°C° 0 mm 4 mps 743 mmHg 81%
    06:00 +4°C° 0 mm 4 mps 744 mmHg 83%
    07:00 +4°C° 0 mm 4 mps 744 mmHg 79%
    08:00 +5°C° 0 mm 4 mps 745 mmHg 76%
    09:00 +5°C° 0 mm 4 mps 745 mmHg 72%
    10:00 +6°C° 0.1 mm 5 mps 746 mmHg 67%
    11:00 +7°C° 0.1 mm 5 mps 746 mmHg 62%
    12:00 +8°C° 0.1 mm 5 mps 746 mmHg 57%
    13:00 +8°C° 0.1 mm 5 mps 747 mmHg 53%
    14:00 +8°C° 0.1 mm 6 mps 747 mmHg 49%
    15:00 +9°C° 0.1 mm 6 mps 747 mmHg 45%
    16:00 +8°C° 0 mm 5 mps 747 mmHg 47%
    17:00 +7°C° 0 mm 4 mps 748 mmHg 49%
    18:00 +8°C° 0 mm 3 mps 748 mmHg 52%
    19:00 +7°C° 0 mm 3 mps 749 mmHg 53%
    20:00 +7°C° 0 mm 3 mps 750 mmHg 55%
    21:00 +5°C° 0 mm 3 mps 750 mmHg 57%
    22:00 +5°C° 0 mm 3 mps 750 mmHg 58%
    23:00 +5°C° 0 mm 3 mps 751 mmHg 58%
    Show more